Вернуться в каталог

BRAZILSAT 1

АктивенСвязьGEO
NORAD 15561·PAYLOAD·🇧🇷 Brazil

Запущен Feb 8, 1985 с Guiana Space Centre

Loading…

TLE

СвежийSource: Space-Track

Эпоха: Sep 14, 2026, 04:45 UTC

1 15561U 85015B   26257.19794755 -.00000252  00000-0  00000-0 0  9996
2 15561  14.0627 344.2336 0003747 317.0582  61.9295  0.99548627 47230

Отслеживайте BRAZILSAT 1 в реальном времени с AllMySat

Download on the App Store